Regional Weather Roundup
Issued by NWS Sioux Falls, SD

Home | Current Version | Previous Version | Text Only | Print | Product List | Glossary On
Versions: 1 2 3 4 5 6 7 8 9 10 11 12 13 14 15 16 17 18 19 20 21 22 23 24 25 26 27 28 29 30 31 32 33 34 35 36 37 38 39 40 41 42 43 44 45 46 47 48 49 50
000
ASUS43 KFSD 281902
RWRFSD

WEATHER ROUNDUP FOR SE SOUTH DAKOTA/SW MINNESOTA/NW IOWA
NATIONAL WEATHER SERVICE SIOUX FALLS SD
200 PM CDT SAT MAR 28 2015

NOTE: "FAIR" INDICATES FEW OR NO CLOUDS BELOW 12,000 FEET WITH NO
SIGNIFICANT WEATHER AND OR OBSTRUCTIONS TO VISIBILITY.


SDZ038>040-050-052>070-282000-
SOUTHEAST SOUTH DAKOTA

CITY           SKY/WX    TMP DP  RH WIND       PRES   REMARKS
CHAMBERLAIN    NOT AVBL
HURON          SUNNY     50  29  44 S20G29    29.96F
MADISON        FAIR      46  27  46 S23       30.03S
MITCHELL       SUNNY     52  30  43 SE23G30   30.00F
SIOUX FALLS    MOSUNNY   49  26  41 S18G29    30.06F
WINNER         FAIR      67  34  29 S18G25    29.89F
YANKTON        SUNNY     50  28  43 S18G24    30.05F
$$

MNZ071-072-080-081-089-090-097-098-282000-
SOUTHWEST MINNESOTA

CITY           SKY/WX    TMP DP  RH WIND       PRES   REMARKS
FAIRMONT       SUNNY     43  18  36 S21       30.15F
JACKSON        MOSUNNY   43  23  45 S16G23    30.15S
LUVERNE        SUNNY     46  28  49 S20       30.09F
MARSHALL       PTSUNNY   43  25  49 S20G28    30.09F
MONTEVIDEO     CLOUDY    45  28  53 SW16G22   30.09F
PIPESTONE      SUNNY     45  28  53 S22G28    30.05F
REDWOOD FALLS  CLOUDY    44  27  51 S17       30.12F
TRACY          CLOUDY    42  30  61 S18       30.10F
WINDOM         PTSUNNY   43  25  49 S15G23    30.13S
WORTHINGTON    CLOUDY    39  27  60 S18       30.12F
$$

IAZ001>003-012>014-020>022-031-032-NEZ013-014-SDZ071-282000-
NORTHWEST IOWA

CITY           SKY/WX    TMP DP  RH WIND       PRES   REMARKS
DENISON        SUNNY     48  25  40 S13G21    30.12F
ESTHERVILLE    SUNNY     43  23  45 S16G26    30.15F
SIOUX CITY     SUNNY     51  25  36 S16G25    30.11F
SPENCER        PTSUNNY   44  27  51 S17G25    30.14F
$$

ABBREVIATIONS USED IN REMARKS
   TC - TEMPERATURE IN CELSIUS
  WCI - WIND CHILL INDEX
   HX - HEAT INDEX
  VSB - VISIBILITY



USA.gov is the U.S. government's official web portal to all federal, state and local government web resources and services.